Change the Weather History Date:

Sunday, May 25, 2014

  Actual Average Record
Temperature  
Mean Temperature 45 °F -  
Max Temperature 53 °F 47 °F 69 °F (2006)
Min Temperature 37 °F 38 °F 35 °F (1999)
Degree Days  
Heating Degree Days 20    
Moisture  
Dew Point 38 °F    
Average Humidity 74    
Maximum Humidity 87    
Minimum Humidity 58    
Precipitation  
Precipitation 0.00 in - - ()
Sea Level Pressure  
Sea Level Pressure 30.08 in    
Wind  
Wind Speed 3 mph (North)    
Max Wind Speed 10 mph    
Max Gust Speed -    
Visibility 10 miles    
Events      
Averages and records for this station are not official NWS values.
T = Trace of Precipitation, MM = Missing Value Source: NWS Daily Summary

Daily Weather History Graph

Daily Weather History Graph

Search for Another Location

Airport or City:

Trip Planner

Search our weather history database for the weather conditions in past years. The results will help you decide how hot, cold, wet, or windy it might be!

Date:

Astronomy

May. 25, 2014 Rise Set
Actual Time 6:01 AM AKDT 11:00 PM AKDT
Civil Twilight 5:06 AM AKDT 11:56 PM AKDT
Nautical Twilight 3:20 AM AKDT 1:46 AM AKDT
Astronomical Twilight Sun does not rise Sun does not rise
Moon 4:54 AM AKDT (5/25) 7:38 PM AKDT (5/25)
Length of Visible Light 18h 49m
Length of Day
16h 58m
Waning Crescent, 9% of the Moon is Illuminated
May 25
Waning Crescent
May 28
New
Jun 5
First Quarter
Jun 12
Full
Jun 19
Last Quarter

Hourly Weather History & Observations

Time (AKDT) Temp. Windchill Dew Point Humidity Pressure Visibility Wind Dir Wind Speed Gust Speed Precip Events Conditions
12:16 AM 46.4 °F - 37.4 °F 71% 30.11 in 10.0 mi Calm Calm - N/A   Clear
12:36 AM 44.6 °F - 33.8 °F 66% 30.11 in 10.0 mi Calm Calm - N/A   Clear
12:56 AM 44.6 °F 42.2 °F 35.6 °F 71% 30.11 in 10.0 mi ENE 4.6 mph - N/A   Clear
1:16 AM 44.6 °F - 35.6 °F 71% 30.11 in 10.0 mi Calm Calm - N/A   Clear
1:36 AM 42.8 °F - 35.6 °F 76% 30.11 in 10.0 mi Calm Calm - N/A   Clear
1:56 AM 42.8 °F - 35.6 °F 76% 30.11 in 10.0 mi Calm Calm - N/A   Clear
2:16 AM 42.8 °F - 33.8 °F 70% 30.11 in 10.0 mi Calm Calm - N/A   Clear
2:36 AM 42.8 °F - 35.6 °F 76% 30.11 in 10.0 mi Calm Calm - N/A   Clear
2:56 AM 41.0 °F - 35.6 °F 81% 30.11 in 10.0 mi Calm Calm - N/A   Clear
3:16 AM 41.0 °F - 33.8 °F 76% 30.11 in 10.0 mi Calm Calm - N/A   Clear
3:36 AM 41.0 °F - 35.6 °F 81% 30.11 in 10.0 mi Calm Calm - N/A   Clear
3:56 AM 39.2 °F 37.0 °F 32.0 °F 75% 30.11 in 10.0 mi South 3.5 mph - N/A   Clear
4:16 AM 39.2 °F - 33.8 °F 81% 30.10 in 10.0 mi Calm Calm - N/A   Clear
4:36 AM 37.4 °F - 33.8 °F 87% 30.10 in 10.0 mi Calm Calm - N/A   Clear
4:56 AM 39.2 °F - 33.8 °F 81% 30.10 in 10.0 mi Calm Calm - N/A   Clear
5:16 AM 39.2 °F - 33.8 °F 81% 30.10 in 10.0 mi Calm Calm - N/A   Clear
5:36 AM 37.4 °F - 33.8 °F 87% 30.10 in 10.0 mi Calm Calm - N/A   Clear
5:56 AM 37.4 °F - 33.8 °F 87% 30.10 in 10.0 mi Calm Calm - N/A   Clear
6:16 AM 37.4 °F 34.9 °F 33.8 °F 87% 30.10 in 10.0 mi WNW 3.5 mph - N/A   Clear
7:16 AM 37.4 °F - 33.8 °F 87% 30.10 in 10.0 mi Calm Calm - N/A   Clear
7:36 AM 37.4 °F - 33.8 °F 87% 30.10 in 10.0 mi Calm Calm - N/A   Clear
7:56 AM 39.2 °F - 35.6 °F 87% 30.10 in 10.0 mi Calm Calm - N/A   Clear
8:16 AM 41.0 °F - 35.6 °F 81% 30.10 in 10.0 mi Calm Calm - N/A   Clear
8:36 AM 42.8 °F 41.1 °F 37.4 °F 81% 30.10 in 10.0 mi North 3.5 mph - N/A   Clear
8:56 AM 42.8 °F 40.1 °F 37.4 °F 81% 30.10 in 10.0 mi North 4.6 mph - N/A   Clear
9:16 AM 42.8 °F 40.1 °F 37.4 °F 81% 30.10 in 10.0 mi NE 4.6 mph - N/A   Clear
9:36 AM 44.6 °F 42.2 °F 37.4 °F 76% 30.09 in 10.0 mi NNE 4.6 mph - N/A   Clear
9:56 AM 44.6 °F 40.7 °F 37.4 °F 76% 30.09 in 10.0 mi North 6.9 mph - N/A   Clear
10:16 AM 44.6 °F 41.4 °F 37.4 °F 76% 30.09 in 10.0 mi North 5.8 mph - N/A   Clear
10:36 AM 44.6 °F 40.7 °F 37.4 °F 76% 30.09 in 10.0 mi North 6.9 mph - N/A   Clear
10:56 AM 44.6 °F 41.4 °F 37.4 °F 76% 30.10 in 10.0 mi North 5.8 mph - N/A   Clear
11:16 AM 46.4 °F 42.9 °F 39.2 °F 76% 30.09 in 10.0 mi North 6.9 mph - N/A   Clear
11:36 AM 46.4 °F 44.3 °F 39.2 °F 76% 30.10 in 10.0 mi North 4.6 mph - N/A   Clear
11:56 AM 46.4 °F 42.9 °F 39.2 °F 76% 30.09 in 10.0 mi North 6.9 mph - N/A   Clear
12:16 PM 48.2 °F - 41.0 °F 76% 30.09 in 10.0 mi ENE 8.1 mph - N/A   Clear
12:36 PM 48.2 °F - 41.0 °F 76% 30.09 in 10.0 mi SSW 4.6 mph - N/A   Clear
12:56 PM 50.0 °F - 42.8 °F 76% 30.08 in 10.0 mi NE 4.6 mph - N/A   Clear
1:16 PM 51.8 °F - 42.8 °F 71% 30.08 in 10.0 mi NNE 6.9 mph - N/A   Clear
1:36 PM 53.6 °F - 42.8 °F 67% 30.08 in 10.0 mi North 8.1 mph - N/A   Clear
1:56 PM 53.6 °F - 42.8 °F 67% 30.08 in 10.0 mi NNE 6.9 mph - N/A   Clear
2:16 PM 53.6 °F - 39.2 °F 58% 30.07 in 10.0 mi NNE 9.2 mph - N/A   Clear
2:36 PM 53.6 °F - 41.0 °F 62% 30.07 in 10.0 mi NNE 9.2 mph - N/A   Clear
2:56 PM 53.6 °F - 42.8 °F 67% 30.07 in 10.0 mi North 10.4 mph - N/A   Clear
3:16 PM 51.8 °F - 42.8 °F 71% 30.07 in 10.0 mi North 9.2 mph - N/A   Clear
3:36 PM 50.0 °F - 42.8 °F 76% 30.07 in 10.0 mi North 9.2 mph - N/A   Clear
3:56 PM 51.8 °F - 42.8 °F 71% 30.06 in 10.0 mi North 8.1 mph - N/A   Clear
4:16 PM 48.2 °F - 42.8 °F 82% 30.06 in 10.0 mi North 4.6 mph - N/A   Clear
4:36 PM 51.8 °F - 42.8 °F 71% 30.06 in 10.0 mi Calm Calm - N/A   Clear
4:56 PM 51.8 °F - 42.8 °F 71% 30.05 in 10.0 mi Calm Calm - N/A   Clear
5:16 PM 51.8 °F - 42.8 °F 71% 30.05 in 10.0 mi Calm Calm - N/A   Clear
5:36 PM 51.8 °F - 42.8 °F 71% 30.04 in 10.0 mi NNW 3.5 mph - N/A   Clear
5:56 PM 51.8 °F - 42.8 °F 71% 30.04 in 10.0 mi North 6.9 mph - N/A   Clear
6:16 PM 51.8 °F - 42.8 °F 71% 30.04 in 10.0 mi NNE 6.9 mph - N/A   Clear
6:36 PM 50.0 °F - 41.0 °F 71% 30.04 in 10.0 mi North 5.8 mph - N/A   Clear
6:56 PM 51.8 °F - 42.8 °F 71% 30.04 in 10.0 mi North 5.8 mph - N/A   Clear
7:16 PM 51.8 °F - 41.0 °F 67% 30.04 in 10.0 mi NNW 6.9 mph - N/A   Clear
7:36 PM 51.8 °F - 41.0 °F 67% 30.04 in 10.0 mi North 5.8 mph - N/A   Clear
7:56 PM 50.0 °F - 42.8 °F 76% 30.04 in 10.0 mi North 4.6 mph - N/A   Clear
8:16 PM 50.0 °F - 41.0 °F 71% 30.04 in 10.0 mi North 5.8 mph - N/A   Clear
8:36 PM 50.0 °F - 39.2 °F 66% 30.04 in 10.0 mi North 5.8 mph - N/A   Clear
8:56 PM 50.0 °F - 39.2 °F 66% 30.04 in 10.0 mi North 8.1 mph - N/A   Clear
9:16 PM 48.2 °F - 39.2 °F 71% 30.04 in 10.0 mi NNE 4.6 mph - N/A   Clear
9:36 PM 48.2 °F - 37.4 °F 66% 30.04 in 10.0 mi NW 5.8 mph - N/A   Clear
9:56 PM 48.2 °F - 37.4 °F 66% 30.04 in 10.0 mi North 3.5 mph - N/A   Clear
10:16 PM 48.2 °F - 35.6 °F 62% 30.04 in 10.0 mi Calm Calm - N/A   Clear
10:36 PM 46.4 °F 45.2 °F 35.6 °F 66% 30.04 in 10.0 mi NE 3.5 mph - N/A   Clear
10:56 PM 46.4 °F - 37.4 °F 71% 30.05 in 9.0 mi Calm Calm - N/A   Clear
11:16 PM 46.4 °F - 35.6 °F 66% 30.05 in 10.0 mi Calm Calm - N/A   Clear
11:36 PM 44.6 °F 43.1 °F 35.6 °F 71% 30.05 in 10.0 mi East 3.5 mph - N/A   Clear
11:56 PM 44.6 °F - 35.6 °F 71% 30.05 in 10.0 mi Calm Calm - N/A   Mostly Cloudy